Wind_Speed
80 82 79 78 81 78 79 83 83 78 73 72 71 70 74 78 76 77 77 77 79 81 81 81 78 81 82 85 88 90 92 92 91 92 91 93 96 92 89 77 70 66 65 66
88 82 82 81 83 82 80 83 84 83 84 81 77 71 71 76 80 81 84 86 85 84 86 87 87 88 88 90 91 94 96 99 100 99 99 100 100 97 85 80 72 68 66 66
93 89 91 90 90 86 87 84 87 87 87 86 81 77 77 79 84 89 88 87 87 88 90 93 94 93 95 96 96 98 103 103 102 105 107 106 100 92 85 77 70 68 66 66
95 92 93 93 94 92 92 91 88 90 87 83 83 77 77 84 89 94 96 94 94 95 97 98 97 98 100 101 103 106 107 108 110 110 107 105 102 90 85 76 71 68 66 66
92 91 93 94 94 97 93 93 93 90 90 86 83 83 76 84 92 96 97 98 98 96 96 98 101 103 104 107 109 110 112 112 111 104 108 102 95 90 84 76 72 71 71 70
93 92 94 93 94 95 93 96 98 95 96 92 89 93 81 88 87 91 94 97 98 100 102 103 106 108 109 111 112 113 116 114 110 108 104 100 95 88 81 76 76 78 79 80
98 95 95 94 95 97 98 101 103 103 102 99 99 97 86 89 93 98 100 101 103 106 107 108 111 113 114 115 116 115 109 106 105 103 102 99 91 85 81 79 81 85 89 91
96 95 97 97 98 100 103 104 107 110 109 106 102 94 92 96 99 102 104 106 110 112 114 115 113 114 115 111 106 104 107 106 103 103 102 97 91 86 86 87 89 91 94 95
106 104 101 101 104 108 108 108 111 112 110 105 100 92 89 94 96 98 100 102 104 109 112 114 113 110 106 108 108 107 106 105 107 105 101 94 91 92 94 95 95 94 91 91
111 112 112 109 109 109 109 110 112 112 110 106 99 92 90 93 93 95 97 98 100 102 104 103 103 108 109 107 107 108 108 107 104 99 95 94 96 99 100 99 91 85 82 81
108 107 104 105 102 104 105 105 107 110 110 111 102 94 93 95 97 99 100 100 98 99 101 102 103 104 107 109 109 107 104 101 99 99 102 103 104 103 103 90 81 77 75 75
117 117 113 110 109 110 110 108 108 108 110 111 110 96 100 100 100 103 102 102 102 103 103 103 104 104 104 104 104 103 101 101 103 106 110 111 111 106 91 79 75 74 72 72
117 121 119 116 115 112 111 110 111 113 114 107 117 99 102 103 105 106 104 104 104 105 105 103 101 97 97 98 101 102 104 107 109 112 113 112 107 96 81 75 74 72 71 71
119 121 118 112 114 114 111 112 112 113 112 109 112 107 101 105 108 109 108 107 107 103 97 95 97 98 100 103 105 108 111 113 116 116 110 102 92 83 79 75 73 72 71 72
119 119 119 115 116 119 117 114 111 114 111 118 105 113 105 110 112 111 108 107 101 96 98 100 102 105 108 111 113 115 116 116 113 109 101 92 79 74 77 79 77 77 76 75
118 118 120 115 115 118 116 115 112 112 108 112 111 107 108 110 111 108 102 99 99 101 103 106 109 112 115 115 118 120 118 109 102 95 94 84 80 79 80 82 82 82 81 82
113 113 115 111 116 119 117 104 111 112 111 112 111 103 111 107 106 104 103 101 104 108 110 112 114 116 119 119 119 111 103 95 90 87 88 85 85 87 87 86 86 86 88 89
114 115 116 113 114 119 105 105 107 111 109 110 108 103 106 103 105 108 106 109 112 114 116 117 118 122 122 117 108 99 91 87 85 86 87 89 91 89 89 89 88 89 89 89
113 117 117 117 116 112 102 102 104 109 107 103 103 102 105 109 112 109 111 115 116 117 118 119 118 113 106 101 94 90 89 89 91 92 91 90 89 88 88 88 87 86 85 85
112 114 118 115 116 113 93 99 104 112 109 104 114 113 114 115 114 112 118 119 120 119 117 111 98 90 89 90 93 90 92 93 92 89 85 83 82 81 83 84 86 88 88 88
117 118 118 115 117 113 98 105 114 117 104 113 120 121 117 117 115 115 118 116 108 103 97 88 86 87 90 90 90 90 90 86 81 78 78 80 82 84 86 88 89 90 91 92
124 126 123 121 124 118 113 120 120 115 114 116 119 120 119 119 116 112 106 94 87 86 86 88 89 89 90 87 81 78 76 76 77 79 81 83 85 87 88 89 91 93 93 94
126 126 126 126 123 120 121 123 121 119 117 117 117 113 106 97 92 88 86 84 86 88 88 86 87 84 76 72 70 71 74 76 78 79 80 82 83 85 87 89 91 92 92 91
112 113 114 113 107 109 108 108 107 98 92 88 86 85 83 84 86 88 89 88 88 84 80 76 72 66 67 68 70 74 74 74 77 79 82 86 88 91 92 94 96 97 98 99
96 97 96 98 97 97 97 98 93 88 86 87 88 87 88 88 88 87 86 76 69 67 66 63 64 67 68 68 72 75 77 81 85 88 91 93 96 99 102 103 104 105 106 108
74 74 75 78 79 84 87 92 89 87 85 83 82 82 81 81 77 69 60 60 60 61 61 62 64 67 70 72 75 79 83 87 90 94 97 101 104 106 108 111 114 114 116 114
Wind_Direction
247 251 250 249 252 255 258 258 258 255 259 264 269 273 274 273 274 274 274 277 279 279 281 282 285 287 288 291 293 295 297 297 297 298 298 300 302 300 301 293 289 281 272 268
243 246 251 252 254 257 259 258 259 261 262 263 262 263 268 272 273 273 271 273 276 280 283 285 287 288 288 290 292 293 295 297 298 297 299 300 302 302 298 294 288 281 273 267
245 248 250 252 253 255 255 254 254 255 259 263 263 264 272 274 275 273 274 275 277 279 282 285 287 287 288 289 290 292 295 296 297 297 298 299 299 299 296 291 285 280 276 269
250 251 251 255 255 256 258 260 266 262 262 266 268 266 270 274 274 275 277 278 281 283 283 283 285 286 287 288 290 291 293 294 295 296 297 298 296 296 295 289 283 278 274 270
251 253 254 257 259 258 262 263 267 266 267 268 271 273 272 274 275 277 279 279 279 282 284 285 283 283 284 286 288 289 291 293 294 296 294 296 296 296 293 287 282 278 276 274
253 253 255 255 255 258 261 263 263 264 265 268 272 274 276 274 273 274 275 277 279 280 281 283 284 284 284 285 287 289 289 291 292 295 294 295 296 294 290 287 283 281 280 279
249 251 254 257 260 260 260 259 259 266 270 271 271 274 276 274 272 272 276 278 279 280 281 280 281 283 284 286 287 289 290 291 292 292 293 295 294 292 290 287 285 285 285 283
249 251 251 253 256 256 258 261 263 266 268 269 272 275 273 273 275 276 278 278 279 279 280 282 283 284 285 286 288 289 290 292 292 293 293 293 294 293 292 290 288 286 285 282
249 250 250 253 256 259 261 264 265 266 267 268 270 271 274 276 277 279 280 279 279 281 282 284 285 286 286 287 289 291 291 292 293 293 294 294 294 294 294 293 290 287 283 279
251 251 252 253 256 259 261 262 264 266 267 268 271 272 275 276 278 279 279 280 281 283 285 286 287 287 289 289 289 290 291 291 293 292 292 293 294 295 296 295 290 283 278 275
250 251 252 253 255 258 261 264 266 267 269 270 271 272 274 276 279 280 282 282 284 285 285 286 287 288 288 290 290 290 291 291 292 293 294 295 296 297 298 292 285 280 277 273
251 251 252 254 256 259 261 263 265 267 267 268 272 273 276 278 279 281 281 283 285 285 285 285 286 286 287 288 288 289 291 292 294 295 295 296 298 299 294 287 284 281 278 274
252 253 253 255 257 259 260 261 263 266 268 272 273 278 277 279 280 281 282 283 283 284 285 286 286 285 286 287 288 289 291 293 293 295 296 296 296 294 288 284 282 280 277 273
250 252 255 256 257 259 261 262 265 268 271 272 274 275 277 279 280 281 281 282 284 284 284 284 285 285 285 288 289 290 291 292 294 295 293 292 290 288 286 284 282 280 278 274
252 253 255 255 257 259 260 262 265 268 269 271 274 276 279 278 278 279 282 282 283 283 282 282 285 287 286 288 290 291 293 294 293 292 290 288 286 282 283 284 283 280 277 274
252 254 255 255 258 259 259 261 266 269 272 273 274 277 277 275 277 279 279 279 280 282 283 284 285 287 289 291 292 293 293 292 291 289 287 287 286 285 284 283 282 280 278 276
254 256 257 258 260 261 262 265 266 268 269 271 273 275 274 275 275 276 278 280 280 280 283 284 286 288 290 291 290 290 290 288 287 286 286 286 286 286 285 282 280 278 277 276
253 255 256 258 259 261 265 264 266 267 267 268 271 273 273 274 274 275 279 281 282 282 284 286 288 289 290 289 287 286 286 287 286 286 285 285 286 285 283 283 280 278 277 274
254 257 258 258 259 261 263 266 266 267 267 271 272 272 273 274 275 278 280 281 283 285 287 288 288 286 286 285 286 287 288 288 286 287 287 286 285 285 285 284 283 282 280 278
255 256 258 259 260 261 263 265 267 267 268 273 272 271 271 273 277 280 280 282 284 286 288 285 283 282 283 285 286 287 286 287 287 286 285 284 283 282 283 283 283 282 281 280
254 256 258 259 260 262 262 263 265 266 273 269 272 273 275 277 279 279 281 283 284 283 281 281 282 283 285 284 284 285 286 285 285 285 284 283 282 281 281 281 280 281 281 281
256 257 259 261 263 265 265 264 267 268 268 269 271 273 275 277 278 279 280 280 281 280 281 283 285 285 284 284 282 282 282 282 281 281 281 280 281 282 282 282 282 283 283 283
257 259 259 260 262 263 264 265 265 266 267 268 270 272 273 274 275 276 278 279 281 283 284 283 282 281 279 279 279 278 279 280 281 282 283 283 283 282 282 283 283 285 286 288
259 260 261 262 261 261 263 264 264 264 264 264 267 268 271 273 274 276 278 279 279 279 278 277 276 275 275 276 279 280 282 282 282 283 283 284 284 285 286 288 289 290 290 290
259 259 258 258 258 258 259 260 260 261 261 263 266 269 271 272 273 274 275 277 275 275 274 272 272 273 276 278 279 281 282 282 282 283 284 285 286 288 289 290 291 292 293 291
254 254 253 253 254 254 253 258 260 262 263 264 264 265 265 266 269 271 271 271 271 271 272 273 275 276 277 279 282 284 284 284 285 286 287 288 289 291 291 293 295 295 293 292
Height
10692 10699 10708 10706 10709 10715 10720 10722 10724 10723 10724 10729 10734 10744 10742 10738 10738 10737 10735 10734 10732 10731 10729 10732 10740 10739 10736 10733 10729 10725 10720 10719 10720 10719 10715 10714 10710 10706 10702 10698 10696 10695 10696 10695
10675 10685 10688 10689 10694 10700 10703 10706 10708 10708 10707 10715 10721 10730 10726 10723 10721 10719 10718 10721 10721 10722 10718 10716 10719 10718 10718 10715 10713 10708 10703 10698 10697 10697 10696 10695 10691 10688 10683 10677 10676 10674 10674 10675
10658 10670 10672 10675 10676 10682 10685 10688 10687 10689 10692 10700 10711 10721 10713 10712 10704 10697 10701 10708 10710 10710 10707 10701 10700 10699 10696 10695 10693 10690 10684 10680 10678 10676 10674 10672 10670 10667 10661 10658 10655 10654 10653 10653
10645 10655 10655 10658 10661 10663 10667 10669 10673 10676 10681 10688 10689 10707 10708 10698 10688 10682 10684 10689 10693 10694 10694 10688 10683 10681 10679 10675 10671 10669 10666 10662 10659 10654 10651 10648 10647 10645 10641 10636 10633 10631 10631 10633
10632 10635 10639 10644 10646 10644 10651 10651 10651 10655 10657 10668 10677 10679 10701 10692 10680 10670 10672 10671 10671 10672 10674 10672 10667 10664 10660 10657 10652 10648 10645 10641 10638 10633 10628 10626 10624 10622 10619 10615 10611 10610 10609 10609
10612 10616 10617 10624 10624 10626 10632 10631 10629 10632 10637 10657 10662 10659 10692 10674 10668 10659 10657 10654 10655 10654 10652 10650 10646 10640 10637 10634 10632 10629 10625 10620 10615 10610 10606 10603 10599 10598 10595 10592 10589 10586 10584 10583
10588 10598 10600 10607 10609 10610 10610 10607 10607 10614 10621 10637 10640 10644 10668 10659 10651 10641 10641 10642 10641 10639 10634 10628 10624 10618 10615 10612 10610 10607 10604 10597 10593 10588 10583 10579 10576 10573 10571 10570 10566 10562 10558 10555
10569 10577 10580 10586 10588 10587 10587 10590 10594 10595 10600 10611 10619 10637 10641 10634 10629 10626 10627 10626 10619 10614 10609 10605 10602 10597 10591 10588 10586 10582 10578 10574 10569 10564 10559 10554 10552 10550 10547 10544 10541 10537 10531 10526
10548 10556 10562 10565 10567 10566 10573 10575 10569 10570 10575 10587 10600 10619 10623 10617 10611 10606 10601 10600 10597 10590 10587 10582 10577 10574 10569 10565 10561 10558 10553 10548 10543 10538 10534 10531 10527 10523 10521 10517 10512 10507 10503 10497
10526 10534 10542 10546 10550 10552 10553 10553 10550 10550 10554 10562 10582 10599 10603 10590 10589 10582 10577 10576 10574 10570 10566 10562 10556 10545 10540 10541 10537 10534 10530 10526 10519 10514 10511 10508 10505 10500 10493 10486 10480 10475 10471 10468
10503 10511 10524 10526 10536 10532 10532 10532 10533 10532 10538 10539 10558 10575 10578 10573 10568 10557 10556 10554 10552 10548 10543 10540 10536 10529 10519 10510 10506 10505 10503 10499 10495 10489 10482 10479 10477 10473 10466 10457 10451 10446 10444 10441
10475 10483 10500 10511 10514 10514 10514 10516 10510 10510 10511 10515 10529 10566 10555 10551 10542 10536 10533 10531 10528 10525 10521 10517 10513 10507 10501 10495 10486 10480 10477 10474 10468 10462 10454 10449 10444 10441 10435 10430 10426 10423 10420 10419
10448 10459 10471 10488 10495 10498 10496 10489 10484 10484 10488 10521 10494 10545 10527 10520 10513 10509 10511 10510 10506 10502 10497 10491 10486 10483 10478 10472 10465 10460 10456 10449 10444 10435 10427 10422 10419 10415 10411 10407 10403 10401 10398 10396
10423 10433 10453 10473 10465 10466 10475 10470 10470 10471 10478 10490 10489 10500 10506 10498 10492 10484 10483 10482 10481 10478 10473 10466 10460 10458 10454 10450 10445 10437 10429 10424 10415 10409 10404 10398 10393 10389 10386 10385 10383 10381 10378 10375
10403 10417 10427 10447 10448 10440 10449 10454 10461 10453 10462 10445 10487 10462 10484 10469 10462 10459 10463 10459 10458 10453 10447 10442 10437 10433 10427 10422 10416 10411 10404 10397 10391 10381 10371 10370 10372 10371 10365 10362 10361 10359 10356 10354
10387 10402 10395 10426 10424 10410 10417 10441 10451 10444 10447 10433 10440 10457 10442 10437 10437 10438 10435 10435 10433 10429 10425 10419 10413 10407 10401 10396 10386 10380 10375 10368 10362 10355 10349 10349 10345 10345 10343 10341 10338 10335 10332 10330
10374 10381 10379 10403 10389 10386 10400 10441 10420 10422 10423 10415 10419 10439 10408 10416 10413 10411 10410 10415 10410 10404 10400 10398 10391 10383 10374 10367 10357 10354 10347 10342 10339 10335 10328 10326 10323 10320 10317 10315 10313 10311 10308 10304
10354 10355 10354 10369 10369 10360 10404 10405 10402 10393 10399 10393 10396 10404 10390 10395 10388 10383 10390 10387 10379 10377 10373 10369 10364 10355 10345 10336 10331 10328 10324 10321 10318 10314 10308 10304 10298 10293 10289 10286 10284 10281 10278 10275
10335 10328 10332 10335 10342 10354 10384 10387 10375 10359 10367 10380 10376 10377 10371 10363 10359 10371 10365 10356 10355 10353 10350 10343 10334 10326 10318 10309 10305 10301 10298 10295 10291 10288 10284 10278 10273 10267 10263 10259 10255 10252 10249 10245
10308 10307 10301 10314 10315 10325 10379 10362 10348 10327 10341 10363 10336 10339 10338 10339 10345 10349 10334 10332 10329 10328 10324 10313 10307 10302 10294 10289 10282 10280 10274 10269 10265 10261 10257 10253 10249 10244 10239 10235 10230 10225 10222 10218
10280 10280 10280 10292 10289 10303 10353 10338 10315 10308 10349 10321 10303 10306 10318 10317 10321 10318 10311 10309 10308 10301 10292 10289 10283 10279 10273 10268 10262 10257 10253 10248 10244 10239 10235 10231 10226 10221 10217 10211 10206 10202 10197 10192
10257 10254 10263 10271 10266 10288 10307 10290 10292 10301 10299 10298 10290 10285 10291 10291 10292 10288 10286 10282 10279 10274 10270 10265 10260 10256 10251 10246 10240 10237 10233 10229 10224 10219 10213 10208 10203 10198 10193 10187 10181 10175 10171 10165
10229 10234 10237 10240 10253 10262 10263 10261 10264 10272 10273 10267 10266 10267 10264 10267 10267 10265 10261 10260 10255 10251 10247 10243 10238 10234 10230 10227 10223 10218 10213 10208 10203 10197 10190 10183 10178 10173 10168 10161 10155 10150 10145 10139
10204 10208 10213 10217 10231 10225 10228 10229 10232 10243 10244 10245 10245 10245 10247 10246 10244 10242 10240 10237 10234 10231 10227 10223 10219 10216 10212 10208 10204 10199 10193 10187 10181 10174 10168 10160 10152 10145 10140 10134 10127 10121 10115 10109
10178 10180 10190 10192 10197 10200 10200 10201 10208 10218 10222 10226 10227 10228 10228 10224 10220 10219 10217 10214 10212 10210 10207 10205 10202 10198 10195 10190 10185 10179 10172 10166 10158 10151 10144 10136 10128 10119 10109 10102 10096 10088 10081 10073
10150 10155 10160 10164 10170 10173 10178 10177 10186 10194 10198 10203 10205 10204 10202 10202 10202 10202 10199 10198 10195 10192 10189 10186 10184 10180 10175 10170 10164 10158 10151 10143 10136 10127 10120 10111 10102 10092 10083 10071 10058 10053 10043 10033